#timestamp,LO_Frequency,Hit,StdDev 
1590019215.9,286046998.5,N
1590019235.7,286046999.5,N
1590019255.5,286046998.3,N
1590019275.4,286047000.2,N
1590019295.2,286047000.8,N
1590019315.0,286047000.6,N
1590019315.9,286047000.6,N
1590019335.8,286046998.8,N
1590019355.6,286046998.8,N
1590019375.5,286047000.3,N
1590019395.3,286047000.0,N
1590019415.1,286047000.5,N
1590019435.9,286047000.8,N
1590019455.7,286046998.6,N
1590019475.5,286046996.6,Y
1590019495.4,286046998.2,P
1590019515.2,286046999.1,N
1590019535.1,286046998.5,N
1590019536.0,286046998.5,Y
1590019555.8,286047001.4,P
1590019575.6,286047002.4,N
1590019595.5,286047001.3,N
1590019615.3,286047003.6,N
1590019635.2,286047004.4,N
1590019655.9,286047004.3,N
1590019675.7,286047003.5,N
1590019695.6,286047003.7,N
1590019715.4,286047001.5,N
1590019735.3,286047001.8,N
1590019755.1,286047001.4,N
1590019756.0,286047001.4,N
1590019775.8,286047000.1,N
1590019795.7,286047002.2,N
1590019815.5,286046999.9,N
1590019835.3,286047000.7,N
1590019855.2,286047002.8,N
1590019875.0,286047001.2,N
1590019875.9,286047001.2,N
1590019895.8,286047000.8,N
1590019915.6,286046999.7,N
1590019935.4,286047002.8,N
1590019955.3,286047004.2,N
1590019975.1,286047006.0,Y
1590019995.9,286047001.5,P
1590020015.7,286047003.9,P
1590020035.5,286047003.9,P
1590020055.4,286047001.4,N
1590020075.2,286047002.7,N
1590020095.1,286046999.9,N
1590020096.0,286046999.9,N
1590020115.8,286047002.3,N
1590020135.6,286047000.3,N
1590020155.5,286046999.9,N
1590020175.3,286047002.0,N
1590020195.1,286047001.8,N
1590020215.9,286047001.7,N
1590020235.7,286047002.2,N
1590020255.6,286047000.3,N
1590020275.4,286047000.4,N
1590020295.2,286047001.1,N
1590020315.1,286046998.5,N
1590020316.0,286046998.5,N
1590020335.8,286047000.3,N
1590020355.7,286047002.4,N
1590020375.5,286047002.3,N
1590020395.3,286047000.0,N
1590020415.2,286047001.6,N
1590020435.3,286047002.7,N
1590020455.1,286046999.8,N
1590020475.8,286047003.7,N
1590020495.7,286047003.4,N
1590020515.5,286047004.3,N
1590020535.4,286047002.5,N
1590020555.2,286046999.6,N
1590020575.0,286047002.7,N
1590020575.9,286047002.7,N
1590020595.8,286047002.3,N
1590020615.6,286047004.4,N
1590020635.5,286047001.7,N
1590020655.3,286047000.1,N
1590020675.1,286046999.9,N
1590020695.9,286046999.7,N
1590020715.7,286047002.5,N
1590020735.6,286047003.8,N
1590020755.4,286047003.9,N
1590020775.2,286047001.4,N
1590020795.1,286047001.9,N
1590020796.0,286047001.9,N
1590020815.8,286047004.1,N
1590020835.6,286047002.2,N
1590020855.5,286047002.7,N
1590020875.3,286047003.8,N
1590020895.2,286047001.8,N
1590020915.9,286047003.9,N
1590020935.7,286047003.7,N
1590020955.6,286047004.1,N
1590020975.4,286047005.9,Y
1590020995.3,286047002.6,P
1590021015.1,286047002.4,P
1590021016.0,286047002.4,P
1590021035.8,286047000.5,Y
1590021055.7,286046996.5,P
1590021075.5,286046999.6,N
1590021095.3,286046995.5,N
1590021115.2,286046996.6,N
1590021135.0,286047000.6,N
1590021135.9,286047000.6,N
1590021155.8,286047000.9,N
1590021175.6,286046998.5,N
1590021195.4,286047001.0,N
1590021215.3,286046998.8,N
1590021235.1,286046998.8,N
1590021255.9,286046999.5,N
1590021275.7,286046999.6,N
1590021295.5,286047000.3,N
1590021315.4,286046998.7,N
1590021335.2,286046998.9,N
1590021355.0,286046998.1,N
1590021355.9,286046998.1,N
1590021375.8,286046999.6,N
1590021395.6,286046999.2,N
1590021415.5,286046997.7,N
1590021435.3,286046996.2,N
1590021455.1,286046994.8,Y
1590021475.9,286046995.9,P
1590021495.7,286046996.1,N
1590021515.6,286046993.9,P
1590021535.4,286046993.5,Y
1590021555.2,286046999.6,P
1590021575.1,286047000.3,N
1590021576.0,286047000.3,N
1590021595.8,286047001.8,N
1590021615.6,286047003.6,N
1590021635.5,286047000.7,N
1590021655.3,286047000.8,N
1590021675.2,286046998.6,N
1590021695.9,286046998.1,N
1590021715.7,286046998.6,N
1590021735.6,286046998.8,N
1590021755.4,286046998.6,N
1590021775.3,286047001.2,N
1590021795.1,286047001.0,N
1590021796.0,286047001.0,N
1590021815.8,286047000.8,N
1590021835.7,286047000.7,N
1590021855.5,286046999.6,N
1590021875.3,286046996.9,N
1590021895.2,286046997.0,N
1590021915.0,286046997.3,N
1590021915.9,286046997.3,N
1590021935.8,286046996.6,N
1590021955.6,286046996.8,N
1590021975.4,286046998.1,N
1590021995.3,286047001.1,N
1590022015.1,286047000.5,N
1590022035.9,286046999.4,N
1590022055.7,286046998.2,N
1590022075.5,286046999.5,N
1590022095.4,286046999.2,N
1590022115.2,286046999.3,N
1590022135.1,286046996.5,N
1590022136.0,286046996.5,N
1590022155.8,286046997.8,N
1590022175.6,286046995.6,N
1590022195.5,286046999.1,N
1590022215.3,286047000.4,N
1590022235.2,286047000.6,N
1590022255.9,286046999.5,N
1590022275.7,286046998.0,N
1590022295.6,286046998.8,N
1590022315.4,286047000.9,N
1590022335.3,286047000.7,N
1590022355.1,286047001.2,N
1590022356.0,286047001.2,N
1590022375.8,286047000.6,N
1590022395.7,286047001.2,N
1590022415.5,286046996.9,N
1590022435.3,286046996.9,N
1590022455.2,286046998.6,N
1590022475.0,286047000.8,N
1590022475.9,286047000.8,N
1590022495.8,286046998.5,N
1590022515.6,286046999.1,N
1590022535.4,286046996.6,N
1590022555.3,286046998.7,N
1590022575.1,286047001.1,N
1590022595.9,286047000.8,N
1590022615.7,286047000.5,N
1590022635.5,286047000.1,N
1590022655.4,286047003.7,N
1590022675.2,286047003.5,N
1590022695.0,286047002.0,N
1590022696.0,286047002.0,N
1590022715.8,286047000.7,N
1590022735.6,286047001.1,N
1590022755.5,286046999.9,N
1590022775.3,286047002.4,N
1590022795.1,286047000.3,N
